DateTime,F1_A11,F1_S11,BsB_S11,BsG_S11,BsR_S11,BbsB_S11,BbsG_S11,BbsR_S11,BaB_A11,BaG_A11,BaR_A11,T_S11,U_S11,P_S11,T1_A11
2016-05-28T00:00:00Z,0000380,21000600,,,,,,,,,,26.3,00.0,0656.0,34.3
2016-05-28T00:01:00Z,0000380,21000600,,,,,,,,,,26.3,00.0,0656.0,34.3
2016-05-28T00:02:00Z,0000380,21000600,,,,,,,,,,26.3,00.0,0656.0,34.3
2016-05-28T00:03:00Z,0000380,61000600,,,,,,,,,,26.3,00.0,0656.0,34.3
2016-05-28T00:04:00Z,0000380,41000600,0003.24,0002.94,0001.84,-000.05,0000.16,0000.11,0000.24,0000.24,0000.02,26.4,00.0,0656.8,34.3
2016-05-28T00:05:00Z,0000380,01000600,0002.68,0002.48,0001.65,0000.24,0000.26,0000.50,0000.09,0000.15,0000.09,26.3,00.0,0656.9,34.3
2016-05-28T00:06:00Z,0000380,01000600,0004.48,0002.54,0001.59,0000.58,-000.18,0000.55,0000.19,0000.11,0000.40,26.3,00.0,0656.9,34.3
2016-05-28T00:07:00Z,0000380,01000600,0003.09,0002.69,0001.29,0000.76,0000.43,0000.35,0000.17,0000.14,-000.08,26.4,00.0,0656.9,34.3
2016-05-28T00:08:00Z,0000380,01000600,0003.59,0003.35,0001.58,0000.29,0000.32,0000.64,0000.28,0000.15,0000.30,26.4,00.0,0656.9,34.3
2016-05-28T00:09:00Z,0000380,01000600,0003.74,0002.03,0001.60,0000.13,0000.53,0000.56,0000.06,0000.15,0000.05,26.3,00.0,0656.9,34.3
2016-05-28T00:10:00Z,0000380,01000600,0003.89,0002.92,0001.05,0000.11,0000.43,0000.52,0000.21,0000.23,0000.09,26.3,00.0,0656.9,34.3
2016-05-28T00:11:00Z,0000380,01000600,0005.02,0002.33,0001.77,0000.39,0000.22,0000.45,0000.22,0000.07,0000.10,26.3,00.0,0656.9,34.3
2016-05-28T00:12:00Z,0000380,01000600,0003.54,0002.42,0001.41,0000.10,0000.19,0000.43,0000.16,0000.22,-000.04,26.3,00.0,0657.0,34.3
2016-05-28T00:13:00Z,0000380,01000600,0003.45,0002.94,0001.55,0000.03,0000.34,0000.18,0000.23,0000.22,0000.22,26.3,00.0,0657.0,34.3
2016-05-28T00:14:00Z,0000380,01000600,0003.90,0001.84,0001.24,0000.43,0000.26,0000.14,0000.16,0000.07,0000.34,26.3,00.0,0657.0,34.3
2016-05-28T00:15:00Z,0000380,01000600,0003.69,0002.42,0000.69,0000.93,-000.02,0000.26,0000.06,0000.18,-000.17,26.3,00.0,0657.0,34.3
2016-05-28T00:16:00Z,0000380,01000600,0003.71,0002.46,0001.30,-000.08,0000.42,0000.56,0000.29,0000.12,0000.27,26.3,00.0,0657.0,34.3
2016-05-28T00:17:00Z,0000380,01000600,0004.16,0002.30,0001.52,0000.23,0000.08,0000.18,0000.12,0000.10,0000.08,26.3,00.0,0657.0,34.3
2016-05-28T00:18:00Z,0000380,01000600,0003.84,0002.90,0001.74,0000.61,0000.19,0000.24,0000.10,0000.31,0000.15,26.3,00.0,0657.1,34.3
2016-05-28T00:19:00Z,0000380,01000600,0003.38,0003.25,0001.45,0000.34,0000.37,0000.56,0000.19,0000.12,-000.13,26.3,00.0,0657.1,34.3
2016-05-28T00:20:00Z,0000380,01000600,0004.15,0002.51,0001.45,0000.06,-000.05,0000.48,0000.33,0000.11,0000.21,26.3,00.0,0657.1,34.3
2016-05-28T00:21:00Z,0000380,01000600,0004.38,0002.07,0001.14,0000.43,0000.05,0000.16,0000.16,0000.18,0000.11,26.3,00.0,0657.1,34.3
2016-05-28T00:22:00Z,0000380,01000600,0003.96,0003.16,0001.39,0000.37,0000.53,0000.40,0000.34,0000.13,0000.46,26.3,00.0,0657.1,34.3
2016-05-28T00:23:00Z,0000380,01000600,0003.65,0002.61,0001.26,0000.18,0000.40,0000.27,0000.09,0000.27,0000.22,26.3,00.0,0657.1,34.3
2016-05-28T00:24:00Z,0000380,01000600,0003.65,0002.78,0001.03,0000.53,0000.37,0000.45,0000.09,0000.06,-000.22,26.3,00.0,0657.1,34.3
2016-05-28T00:25:00Z,0000380,01000600,0002.85,0002.93,0001.37,0000.71,0000.56,-000.05,0000.33,0000.09,0000.28,26.3,00.0,0657.1,34.3
2016-05-28T00:26:00Z,0000380,01000600,0002.68,0002.32,0000.82,-000.13,0000.35,0000.05,0000.14,0000.20,-000.09,26.3,00.0,0657.1,34.3
2016-05-28T00:27:00Z,0000380,01000600,0003.66,0002.80,0001.24,0000.45,0000.11,0000.43,0000.15,0000.13,0000.38,26.3,00.0,0657.1,34.3
2016-05-28T00:28:00Z,0000380,01000600,0004.04,0002.40,0001.36,-000.16,0000.13,0000.60,0000.24,0000.18,0000.15,26.3,00.0,0657.1,34.3
2016-05-28T00:29:00Z,0000380,01000600,0003.77,0002.63,0001.47,-000.13,0000.27,0000.40,0000.29,0000.16,-000.02,26.3,00.0,0657.1,34.3
2016-05-28T00:30:00Z,0000380,01000600,0003.48,0002.41,0001.30,0000.42,-000.16,0000.29,-000.00,0000.16,0000.14,26.3,00.0,0657.2,34.4
2016-05-28T00:31:00Z,0000380,01000600,0003.70,0002.98,0001.29,0000.69,-000.03,0000.27,0000.11,0000.12,0000.01,26.3,00.0,0657.2,34.4
2016-05-28T00:32:00Z,0000380,01000600,0005.02,0002.53,0001.62,-000.40,-000.02,0000.64,0000.29,0000.22,0000.37,26.3,00.0,0657.2,34.4
2016-05-28T00:33:00Z,0000380,01000600,0004.33,0002.06,0001.43,0000.23,0000.43,0000.60,0000.13,0000.11,0000.11,26.3,00.0,0657.2,34.4
2016-05-28T00:34:00Z,0000380,01000600,0003.70,0003.01,0001.54,0000.16,0000.38,0000.71,0000.13,0000.29,-000.03,26.3,00.0,0657.2,34.4
2016-05-28T00:35:00Z,0000380,01000600,0003.59,0002.57,0001.69,0000.45,0000.37,0000.85,0000.12,-000.00,0000.14,26.3,00.0,0657.2,34.4
2016-05-28T00:36:00Z,0000380,01000600,0003.81,0002.54,0001.65,-000.27,0000.74,0000.53,0000.33,0000.26,0000.20,26.3,00.0,0657.2,34.4
2016-05-28T00:37:00Z,0000380,01000600,0003.79,0002.15,0001.31,0000.18,0000.58,0000.42,0000.18,0000.02,0000.05,26.3,00.0,0657.2,34.4
2016-05-28T00:38:00Z,0000380,01000600,0003.31,0002.52,0001.54,0000.18,0000.67,0000.64,0000.21,0000.25,0000.01,26.3,00.0,0657.2,34.4
2016-05-28T00:39:00Z,0000380,01000600,0003.64,0002.45,0001.53,0000.08,0000.48,0000.42,0000.01,0000.18,0000.26,26.3,00.0,0657.2,34.4
2016-05-28T00:40:00Z,0000380,01000600,0004.25,0002.37,0000.69,0000.13,0000.38,0000.29,0000.18,0000.27,-000.00,26.3,00.0,0657.2,34.4
2016-05-28T00:41:00Z,0000380,01000600,0003.70,0003.05,0001.95,0000.43,0000.35,0000.58,0000.23,0000.11,0000.26,26.3,00.0,0657.2,34.4
2016-05-28T00:42:00Z,0000380,01000600,0004.00,0003.05,0000.89,0000.26,0000.13,0000.34,0000.07,0000.07,0000.11,26.3,00.0,0657.3,34.4
2016-05-28T00:43:00Z,0000380,01000600,0003.78,0002.18,0001.26,-000.14,0000.74,0000.29,0000.33,0000.21,0000.07,26.3,00.0,0657.3,34.4
2016-05-28T00:44:00Z,0000380,01000600,0004.34,0002.51,0001.30,0000.58,0000.30,0000.27,0000.25,0000.15,0000.37,26.3,00.0,0657.3,34.4
2016-05-28T00:45:00Z,0000380,01000600,0004.22,0001.87,0001.48,0000.23,0000.34,0000.35,0000.12,0000.20,0000.21,26.3,00.0,0657.3,34.3
2016-05-28T00:46:00Z,0000380,01000600,0003.99,0002.38,0001.26,0000.68,0000.30,0000.60,0000.21,0000.08,-000.32,26.3,00.0,0657.3,34.3
2016-05-28T00:47:00Z,0000380,01000600,0002.98,0002.51,0001.04,0000.06,0000.93,0000.39,0000.08,0000.23,0000.31,26.3,00.0,0657.3,34.3
2016-05-28T00:48:00Z,0000380,01000600,0004.02,0002.02,0001.46,0000.03,0000.34,0000.19,0000.39,0000.10,0000.04,26.3,00.0,0657.3,34.3
2016-05-28T00:49:00Z,0000380,01000600,0002.97,0002.89,0001.12,0000.66,0000.43,0000.31,-000.02,0000.10,0000.17,26.3,00.0,0657.3,34.3
2016-05-28T00:50:00Z,0000380,01000600,0003.77,0002.94,0000.94,0000.24,0000.38,0000.34,0000.39,0000.21,0000.17,26.3,00.0,0657.3,34.3
2016-05-28T00:51:00Z,0000380,01000600,0003.57,0002.32,0001.65,0000.23,0000.35,0000.45,0000.05,0000.33,0000.08,26.3,00.0,0657.3,34.3
2016-05-28T00:52:00Z,0000380,01000600,0004.17,0002.44,0001.41,0000.39,0000.35,0000.35,0000.19,0000.07,0000.36,26.3,00.0,0657.4,34.3
2016-05-28T00:53:00Z,0000380,01000600,0004.87,0002.45,0001.18,-000.29,0000.08,0000.32,0000.18,0000.20,-000.21,26.3,00.0,0657.4,34.3
2016-05-28T00:54:00Z,0000380,01000600,0003.22,0002.48,0001.41,0000.80,0000.45,0000.34,0000.19,0000.12,0000.38,26.3,00.0,0657.4,34.3
2016-05-28T00:55:00Z,0000380,01000600,0004.85,0002.69,0001.25,0000.26,0000.13,0000.08,0000.26,0000.33,0000.09,26.3,00.0,0657.4,34.3
2016-05-28T00:56:00Z,0000380,01000600,0004.09,0002.60,0001.28,0000.72,0000.91,0000.51,0000.12,-000.08,0000.08,26.3,00.0,0657.4,34.3
2016-05-28T00:57:00Z,0000380,41000600,,,,,,,,,,,,0657.2,34.3
2016-05-28T00:58:00Z,0000380,61000600,,,,,,,,,,26.2,00.0,0656.5,34.3
2016-05-28T00:59:00Z,0000380,21000600,,,,,,,,,,26.2,00.0,0656.5,34.3
2016-05-28T01:00:00Z,0000380,21000600,,,,,,,,,,26.2,00.0,0656.5,34.2
2016-05-28T01:01:00Z,0000380,21000600,,,,,,,,,,26.2,00.0,0656.5,34.2
2016-05-28T01:02:00Z,0000380,21000600,,,,,,,,,,26.2,00.0,0656.5,34.2
2016-05-28T01:03:00Z,0000380,61000600,,,,,,,,,,26.2,00.0,0656.5,34.2
2016-05-28T01:04:00Z,0000380,41000600,0004.81,0002.54,0001.32,0000.95,0000.42,-000.26,0000.25,0000.19,0000.21,26.3,00.0,0657.3,34.2
2016-05-28T01:05:00Z,0000380,01000600,0003.91,0002.91,0001.65,0000.14,0000.48,0000.10,0000.18,0000.30,0000.19,26.3,00.0,0657.4,34.2
2016-05-28T01:06:00Z,0000380,01000600,0003.42,0002.45,0001.36,0000.76,0000.50,0000.29,0000.23,0000.16,0000.26,26.3,00.0,0657.4,34.2
2016-05-28T01:07:00Z,0000380,01000600,0004.30,0002.70,0001.57,0000.56,0000.45,0000.24,0000.24,0000.14,0000.28,26.3,00.0,0657.4,34.2
2016-05-28T01:08:00Z,0000380,01000600,0003.74,0002.48,0001.82,0000.87,0000.69,0000.40,0000.19,0000.22,-000.03,26.3,00.0,0657.4,34.2
2016-05-28T01:09:00Z,0000380,01000600,0004.24,0002.28,0001.38,0000.64,0000.91,0000.00,0000.27,0000.01,0000.06,26.3,00.0,0657.4,34.2
2016-05-28T01:10:00Z,0000380,01000600,0004.12,0002.35,0001.27,0001.14,0000.48,-000.02,0000.13,0000.29,0000.28,26.3,00.0,0657.4,34.2
2016-05-28T01:11:00Z,0000380,01000600,0003.90,0002.75,0001.44,0000.45,0000.90,0000.39,0000.30,0000.32,0000.16,26.3,00.0,0657.4,34.2
2016-05-28T01:12:00Z,0000380,01000600,0004.23,0002.57,0001.86,0000.42,0000.66,0000.31,0000.17,0000.10,-000.00,26.3,00.0,0657.4,34.2
2016-05-28T01:13:00Z,0000380,01000600,0004.53,0003.15,0001.44,0000.13,0000.21,0000.14,0000.25,0000.16,0000.32,26.3,00.0,0657.4,34.2
2016-05-28T01:14:00Z,0000380,01000600,0003.96,0002.55,0001.58,0001.00,0000.29,0000.53,0000.18,0000.14,0000.16,26.3,00.0,0657.4,34.2
2016-05-28T01:15:00Z,0000380,01000600,0003.31,0002.82,0001.67,0001.14,0000.42,0000.10,0000.13,0000.15,0000.04,26.3,00.0,0657.5,34.3
2016-05-28T01:16:00Z,0000380,01000600,0005.22,0002.20,0001.77,0000.27,0000.16,0000.26,0000.21,0000.20,0000.19,26.3,00.0,0657.5,34.3
2016-05-28T01:17:00Z,0000380,01000600,0003.41,0003.22,0001.63,-000.03,0000.80,0000.14,0000.14,0000.24,0000.02,26.3,00.0,0657.5,34.3
2016-05-28T01:18:00Z,0000380,01000600,0003.78,0002.20,0001.16,0000.53,0000.48,0000.34,0000.25,0000.10,0000.09,26.4,00.0,0657.5,34.3
2016-05-28T01:19:00Z,0000380,01000600,0003.35,0002.51,0001.48,0000.37,-000.11,0000.16,0000.13,0000.30,0000.16,26.4,00.0,0657.5,34.3
2016-05-28T01:20:00Z,0000380,01000600,0003.53,0002.53,0001.32,0000.58,0000.90,0000.34,0000.25,0000.09,0000.22,26.4,00.0,0657.5,34.3
2016-05-28T01:21:00Z,0000380,01000600,0003.56,0002.41,0001.61,0000.72,0000.48,0000.14,0000.25,0000.15,0000.06,26.4,00.0,0657.5,34.3
2016-05-28T01:22:00Z,0000380,01000600,0003.50,0002.67,0001.63,0000.45,0000.74,0000.66,0000.17,0000.24,0000.19,26.4,00.0,0657.5,34.3
2016-05-28T01:23:00Z,0000380,01000600,0004.24,0003.22,0001.44,0000.08,0000.96,-000.06,0000.13,0000.20,0000.29,26.5,00.0,0657.5,34.3
2016-05-28T01:24:00Z,0000380,01000600,0003.77,0002.49,0001.73,0000.47,0000.50,0000.24,0000.27,0000.20,0000.03,26.4,00.0,0657.5,34.3
2016-05-28T01:25:00Z,0000380,01000600,0004.08,0002.56,0001.59,0000.95,0000.51,0000.45,0000.25,-000.02,0000.38,26.4,00.0,0657.6,34.3
2016-05-28T01:26:00Z,0000380,01000600,0003.37,0002.81,0001.37,0000.21,0000.80,0000.18,0000.37,0000.30,-000.10,26.5,00.0,0657.6,34.3
2016-05-28T01:27:00Z,0000380,01000600,0003.60,0002.68,0000.88,0000.63,0000.62,0000.19,0000.05,0000.30,0000.22,26.5,00.0,0657.6,34.3
2016-05-28T01:28:00Z,0000380,01000600,0003.52,0002.51,0001.62,0000.16,0000.59,0000.43,0000.26,0000.09,0000.33,26.4,00.0,0657.6,34.3
2016-05-28T01:29:00Z,0000380,01000600,0003.71,0002.67,0002.06,0000.63,0000.40,0000.11,0000.21,0000.14,0000.02,26.5,00.0,0657.6,34.3
2016-05-28T01:30:00Z,0000380,01000600,0004.42,0002.94,0001.12,0000.56,0000.78,0000.10,0000.04,0000.31,0000.18,26.5,00.0,0657.6,34.3
2016-05-28T01:31:00Z,0000380,01000600,0003.26,0003.02,0001.08,0000.43,0000.98,0000.13,0000.42,0000.05,-000.26,26.4,00.0,0657.6,34.3
2016-05-28T01:32:00Z,0000380,01000600,0004.69,0003.15,0001.50,0000.13,0000.61,-000.03,0000.05,0000.12,0000.28,26.5,00.0,0657.6,34.3
2016-05-28T01:33:00Z,0000380,01000600,0003.56,0002.61,0001.40,-000.11,0000.59,0000.26,0000.20,0000.19,0000.32,26.4,00.0,0657.7,34.3
2016-05-28T01:34:00Z,0000380,01000600,0004.52,0002.68,0001.58,0000.50,0000.46,0000.40,0000.25,0000.27,0000.22,26.4,00.0,0657.7,34.3
2016-05-28T01:35:00Z,0000380,01000600,0004.09,0002.60,0001.89,0000.03,0000.62,0000.16,0000.18,0000.17,-000.05,26.4,00.0,0657.7,34.3
2016-05-28T01:36:00Z,0000380,01000600,0003.63,0002.87,0001.68,0000.13,0000.21,0000.19,0000.14,0000.19,0000.16,26.4,00.0,0657.7,34.3
2016-05-28T01:37:00Z,0000380,01000600,0003.48,0002.61,0001.37,0000.40,0000.62,0000.23,0000.21,0000.25,0000.16,26.4,00.0,0657.7,34.3
2016-05-28T01:38:00Z,0000380,01000600,0004.11,0002.42,0001.48,0000.71,0000.98,0000.63,0000.23,0000.08,-000.02,26.4,00.0,0657.7,34.3
2016-05-28T01:39:00Z,0000380,01000600,0004.04,0002.91,0001.17,0000.59,0000.67,0000.32,0000.23,0000.16,0000.33,26.4,00.0,0657.7,34.3
2016-05-28T01:40:00Z,0000380,01000600,0004.52,0002.83,0001.53,-000.03,0000.48,0000.10,0000.20,0000.11,-000.06,26.4,00.0,0657.8,34.3
2016-05-28T01:41:00Z,0000380,01000600,0004.03,0002.97,0001.35,0000.77,0000.72,0000.14,0000.27,0000.16,-000.02,26.3,00.0,0657.8,34.3
2016-05-28T01:42:00Z,0000380,01000600,0003.67,0002.37,0001.45,0000.39,0000.66,0000.26,0000.01,0000.22,0000.58,26.3,00.0,0657.8,34.3
2016-05-28T01:43:00Z,0000380,01000600,0003.37,0002.39,0001.71,0000.35,0000.30,0000.39,0000.38,0000.18,-000.16,26.3,00.0,0657.8,34.3
2016-05-28T01:44:00Z,0000380,01000600,0003.60,0002.88,0002.20,0000.67,0000.38,0000.19,-000.01,0000.13,0000.16,26.3,00.0,0657.8,34.3
2016-05-28T01:45:00Z,0000380,01000600,0004.03,0002.74,0001.77,0000.55,0000.93,0000.10,0000.44,0000.10,0000.18,26.3,00.0,0657.8,34.2
2016-05-28T01:46:00Z,0000380,01000600,0003.09,0002.92,0001.95,0000.39,0000.40,-000.02,0000.22,0000.27,0000.19,26.3,00.0,0657.8,34.2
2016-05-28T01:47:00Z,0000380,01000600,0003.94,0003.33,0001.79,0000.64,0000.82,0000.51,0000.11,0000.29,0000.25,26.3,00.0,0657.8,34.2
2016-05-28T01:48:00Z,0000380,01000600,0005.71,0002.73,0001.45,-000.14,0001.01,0000.45,0000.16,0000.15,-000.09,26.3,00.0,0657.8,34.2
2016-05-28T01:49:00Z,0000380,01000600,0003.74,0002.91,0001.42,0000.51,0000.35,0000.16,0000.32,0000.24,0000.19,26.3,00.0,0657.8,34.2
2016-05-28T01:50:00Z,0000380,01000600,0005.10,0002.97,0001.41,0000.24,0000.66,0000.10,0000.21,0000.13,0000.10,26.3,00.0,0657.8,34.2
2016-05-28T01:51:00Z,0000380,01000600,0004.20,0002.72,0001.46,0000.67,0000.66,0000.23,0000.24,0000.17,0000.37,26.3,00.0,0657.8,34.2
2016-05-28T01:52:00Z,0000380,01000600,0003.31,0002.67,0001.63,0000.10,0000.48,0000.39,0000.09,0000.15,-000.03,26.2,00.0,0657.8,34.2
2016-05-28T01:53:00Z,0000380,01000600,0003.27,0002.67,0001.73,0000.61,0000.40,0000.35,0000.23,0000.34,0000.22,26.2,00.0,0657.8,34.2
2016-05-28T01:54:00Z,0000380,01000600,0003.57,0002.20,0002.07,0000.75,0000.06,0000.27,0000.15,0000.03,-000.08,26.2,00.0,0657.8,34.2
2016-05-28T01:55:00Z,0000380,01000600,0004.81,0002.82,0001.74,0000.35,0000.46,-000.03,0000.27,0000.29,0000.23,26.2,00.0,0657.8,34.2
2016-05-28T01:56:00Z,0000380,01000600,0004.22,0002.87,0002.27,0000.32,0000.61,0000.40,0000.33,0000.22,0000.17,26.2,00.0,0657.8,34.2
2016-05-28T01:57:00Z,0000380,41000600,,,,,,,,,,,,0658.0,34.2
2016-05-28T01:58:00Z,0000380,61000600,,,,,,,,,,26.0,00.0,0657.0,34.2
2016-05-28T01:59:00Z,0000380,21000600,,,,,,,,,,26.0,00.0,0657.0,34.2
2016-05-28T02:00:00Z,0000380,21000600,,,,,,,,,,26.0,00.0,0657.0,34.2
2016-05-28T02:01:00Z,0000380,21000600,,,,,,,,,,26.0,00.0,0657.0,34.2
2016-05-28T02:02:00Z,0000380,21000600,,,,,,,,,,26.0,00.0,0657.0,34.2
2016-05-28T02:03:00Z,0000380,61000600,,,,,,,,,,26.1,00.0,0657.0,34.2
2016-05-28T02:04:00Z,0000380,41000600,0004.16,0002.61,0001.64,0000.39,0000.37,0000.14,0000.09,0000.10,-000.14,26.1,00.0,0657.8,34.2
2016-05-28T02:05:00Z,0000380,01000600,0004.25,0003.15,0001.71,0000.51,0000.05,0000.22,0000.36,0000.20,0000.07,26.0,00.0,0657.9,34.2
2016-05-28T02:06:00Z,0000380,01000600,0004.85,0003.05,0001.64,0000.13,0000.21,-000.27,0000.16,0000.36,0000.44,26.0,00.0,0657.9,34.2
2016-05-28T02:07:00Z,0000380,01000600,0005.50,0002.90,0001.54,0000.26,0000.67,0000.13,0000.26,0000.17,0000.22,26.0,00.0,0657.9,34.2
2016-05-28T02:08:00Z,0000380,01000600,0004.46,0003.09,0002.23,0000.63,0000.08,0000.37,0000.28,0000.19,0000.31,26.0,00.0,0657.9,34.2
2016-05-28T02:09:00Z,0000380,01000600,0003.71,0002.82,0001.44,-000.35,0000.61,0000.24,0000.07,0000.14,-000.27,26.0,00.0,0657.9,34.2
2016-05-28T02:10:00Z,0000380,01000600,0003.95,0002.72,0001.69,0000.75,0000.27,0000.19,0000.24,0000.17,0000.24,26.0,00.0,0657.9,34.2
2016-05-28T02:11:00Z,0000380,01000600,0004.05,0002.20,0002.03,0000.21,0000.43,0000.16,0000.28,0000.43,0000.36,26.0,00.0,0657.9,34.2
2016-05-28T02:12:00Z,0000380,01000600,0004.25,0002.79,0001.27,-000.13,0000.43,-000.29,0000.20,-000.01,0000.16,26.0,00.0,0657.9,34.2
2016-05-28T02:13:00Z,0000380,01000600,0004.08,0003.25,0001.52,-000.13,0000.42,0000.16,0000.17,0000.21,-000.02,26.0,00.0,0657.9,34.2
2016-05-28T02:14:00Z,0000380,01000600,0005.12,0003.03,0001.90,0000.61,0000.14,0000.18,0000.34,0000.20,0000.23,26.0,00.0,0657.9,34.2
2016-05-28T02:15:00Z,0000380,01000600,0004.42,0002.91,0001.74,0000.69,0000.13,0000.21,0000.12,0000.24,-000.09,26.0,00.0,0657.9,34.3
2016-05-28T02:16:00Z,0000380,01000600,0003.90,0002.84,0001.82,0000.42,0000.34,0000.37,0000.17,0000.15,0000.28,26.0,00.0,0657.9,34.3
2016-05-28T02:17:00Z,0000380,01000600,0004.62,0002.97,0001.71,0000.00,0000.35,0000.05,0000.24,0000.11,0000.00,26.0,00.0,0657.9,34.3
2016-05-28T02:18:00Z,0000380,01000600,0004.74,0002.07,0001.71,-000.02,0000.34,0000.22,0000.24,0000.32,0000.30,26.0,00.0,0657.9,34.3
2016-05-28T02:19:00Z,0000380,01000600,0004.50,0002.52,0001.83,0000.34,0000.21,0000.31,0000.26,0000.08,0000.51,26.0,00.0,0657.9,34.3
2016-05-28T02:20:00Z,0000380,01000600,0003.74,0002.58,0002.04,0000.56,0000.42,0000.14,0000.18,0000.29,-000.06,26.0,00.0,0657.9,34.3
2016-05-28T02:21:00Z,0000380,01000600,0005.04,0002.81,0001.39,-000.29,0000.19,0000.19,0000.26,0000.15,0000.11,26.0,00.0,0657.9,34.3
2016-05-28T02:22:00Z,0000380,01000600,0004.56,0002.76,0001.85,0000.59,0000.06,0000.79,0000.13,0000.15,0000.02,25.9,00.0,0657.9,34.3
2016-05-28T02:23:00Z,0000380,01000600,0004.31,0002.19,0001.52,0000.37,0000.26,0000.32,0000.35,0000.20,-000.05,25.9,00.0,0658.0,34.3
2016-05-28T02:24:00Z,0000380,01000600,0003.72,0002.53,0002.03,0000.30,0000.29,0000.08,0000.04,0000.19,0000.51,25.9,00.0,0658.0,34.3
2016-05-28T02:25:00Z,0000380,01000600,0003.35,0002.95,0001.62,0000.82,0000.03,0000.03,0000.28,0000.06,0000.08,25.9,00.0,0658.0,34.3
2016-05-28T02:26:00Z,0000380,01000600,0003.72,0002.57,0001.57,0000.69,0000.35,0000.40,0000.27,0000.24,0000.12,25.8,00.0,0658.0,34.3
2016-05-28T02:27:00Z,0000380,01000600,0004.02,0002.59,0001.71,0000.40,0000.14,0000.14,0000.09,0000.10,-000.03,25.8,00.0,0658.0,34.3
2016-05-28T02:28:00Z,0000380,01000600,0003.49,0002.88,0001.80,0000.30,0000.06,0000.37,0000.30,0000.33,0000.20,25.8,00.0,0658.0,34.3
2016-05-28T02:29:00Z,0000380,01000600,0004.96,0002.79,0001.14,0000.58,-000.08,-000.26,0000.27,0000.14,0000.24,25.8,00.0,0658.0,34.3
2016-05-28T02:30:00Z,0000380,01000600,0004.40,0002.70,0001.54,0000.58,0000.16,0000.40,0000.23,0000.14,0000.07,25.8,00.0,0658.0,34.2
2016-05-28T02:31:00Z,0000380,01000600,0004.56,0002.71,0001.87,0000.67,0000.32,0000.29,0000.14,0000.26,0000.14,25.8,00.0,0658.0,34.2
2016-05-28T02:32:00Z,0000380,01000600,0004.99,0002.75,0002.05,0000.51,0000.46,-000.13,0000.18,0000.14,0000.32,25.8,00.0,0658.0,34.2
2016-05-28T02:33:00Z,0000380,01000600,0004.45,0002.65,0001.99,0000.24,-000.21,-000.10,0000.28,0000.20,0000.12,25.8,00.0,0658.0,34.2
2016-05-28T02:34:00Z,0000380,01000600,0004.16,0002.42,0001.67,0000.34,0000.88,0000.24,0000.27,0000.27,0000.37,25.8,00.0,0658.0,34.2
2016-05-28T02:35:00Z,0000380,01000600,0004.10,0002.82,0002.03,0000.59,0000.29,0000.13,0000.07,0000.16,0000.00,25.8,00.0,0658.0,34.2
2016-05-28T02:36:00Z,0000380,01000600,0004.45,0002.87,0002.22,-000.67,0000.13,-000.08,0000.20,0000.15,0000.07,25.8,00.0,0658.0,34.2
2016-05-28T02:37:00Z,0000380,01000600,0004.48,0002.91,0001.28,-000.08,-000.18,-000.26,0000.31,0000.18,0000.20,25.8,00.0,0658.0,34.2
2016-05-28T02:38:00Z,0000380,01000600,0004.30,0002.49,0001.91,-000.06,-000.08,0000.19,0000.23,0000.30,0000.24,25.8,00.0,0658.0,34.2
2016-05-28T02:39:00Z,0000380,01000600,0004.51,0002.47,0001.68,0000.16,0000.29,0000.13,0000.36,0000.13,0000.07,25.8,00.0,0658.0,34.2
2016-05-28T02:40:00Z,0000380,01000600,0004.32,0002.66,0001.64,0000.46,0000.81,0000.26,0000.16,0000.15,0000.14,25.8,00.0,0658.0,34.2
2016-05-28T02:41:00Z,0000380,01000600,0004.16,0002.27,0001.35,0000.30,-000.05,0000.19,0000.20,0000.07,-000.01,25.8,00.0,0658.0,34.2
2016-05-28T02:42:00Z,0000380,01000600,0004.23,0002.51,0001.79,0000.58,0000.26,0000.02,0000.18,0000.35,0000.19,25.8,00.0,0658.0,34.2
2016-05-28T02:43:00Z,0000380,01000600,0004.25,0002.75,0001.75,0000.83,0000.32,0000.00,0000.12,0000.17,0000.28,25.8,00.0,0658.0,34.2
2016-05-28T02:44:00Z,0000380,01000600,0003.73,0003.30,0002.10,0000.22,0000.32,0000.34,0000.22,0000.23,0000.27,25.8,00.0,0658.0,34.2
2016-05-28T02:45:00Z,0000380,01000600,0004.49,0002.51,0002.03,0000.82,0000.45,0000.08,0000.16,0000.10,-000.03,25.8,00.0,0658.0,34.3
2016-05-28T02:46:00Z,0000380,01000600,0004.03,0003.38,0001.83,0000.46,0000.13,0000.27,0000.37,0000.29,0000.33,25.8,00.0,0658.0,34.3
2016-05-28T02:47:00Z,0000380,01000600,0004.60,0002.49,0001.58,0000.51,0000.45,0000.48,0000.06,0000.22,-000.14,25.8,00.0,0658.0,34.3
2016-05-28T02:48:00Z,0000380,01000600,0003.84,0002.65,0001.95,0000.88,0000.16,0000.03,0000.29,0000.11,0000.15,25.8,00.0,0658.0,34.3
2016-05-28T02:49:00Z,0000380,01000600,0004.01,0002.96,0001.45,0000.95,0000.03,-000.16,0000.11,0000.25,0000.22,25.8,00.0,0658.0,34.3
2016-05-28T02:50:00Z,0000380,01000600,0004.79,0002.67,0001.74,0000.80,0000.35,0000.37,0000.30,0000.02,0000.26,25.9,00.0,0658.0,34.3
2016-05-28T02:51:00Z,0000380,01000600,0002.99,0002.68,0001.43,0000.48,0000.30,0000.40,0000.17,0000.25,-000.06,25.8,00.0,0658.0,34.3
2016-05-28T02:52:00Z,0000380,01000600,0004.44,0002.43,0001.36,0000.00,0000.22,0000.14,0000.20,0000.08,0000.26,25.8,00.0,0658.0,34.3
2016-05-28T02:53:00Z,0000380,01000600,0004.11,0002.60,0001.39,0000.66,0000.46,0000.18,0000.28,0000.26,0000.09,25.8,00.0,0658.0,34.3
2016-05-28T02:54:00Z,0000380,01000600,0003.74,0002.63,0001.38,0000.74,0000.69,0000.11,0000.16,0000.31,0000.06,25.8,00.0,0658.0,34.3
2016-05-28T02:55:00Z,0000380,01000600,0004.03,0002.65,0001.38,0000.29,0000.29,-000.02,0000.34,0000.20,0000.17,25.8,00.0,0658.0,34.3
2016-05-28T02:56:00Z,0000380,01000600,0004.84,0003.12,0001.04,0000.50,0000.40,0000.40,0000.06,0000.13,0000.01,25.8,00.0,0658.0,34.3
2016-05-28T02:57:00Z,0000380,41000600,,,,,,,,,,,,0658.0,34.3
2016-05-28T02:58:00Z,0000380,61000600,,,,,,,,,,25.7,00.0,0657.2,34.3
2016-05-28T02:59:00Z,0000380,21000600,,,,,,,,,,25.7,00.0,0657.1,34.3
2016-05-28T03:00:00Z,0000380,21000600,,,,,,,,,,25.7,00.0,0657.1,34.3
2016-05-28T03:01:00Z,0000380,21000600,,,,,,,,,,25.7,00.0,0657.1,34.3
2016-05-28T03:02:00Z,0000380,21000600,,,,,,,,,,25.7,00.0,0657.1,34.3
2016-05-28T03:03:00Z,0000380,61000600,,,,,,,,,,25.7,00.0,0657.1,34.3
2016-05-28T03:04:00Z,0000380,41000600,0003.83,0002.24,0001.81,0000.27,0000.00,0000.24,0000.23,0000.13,-000.04,25.8,00.0,0658.0,34.3
2016-05-28T03:05:00Z,0000380,01000600,0003.54,0001.97,0001.91,-000.02,0000.24,0000.48,0000.28,0000.21,0000.18,25.8,00.0,0658.0,34.3
2016-05-28T03:06:00Z,0000380,01000600,0003.86,0002.65,0001.52,0000.62,0000.49,0000.08,0000.24,0000.20,0000.35,25.8,00.0,0658.1,34.3
2016-05-28T03:07:00Z,0000380,01000600,0003.88,0002.10,0002.01,0000.69,0000.08,0000.22,0000.15,0000.29,0000.06,25.8,00.0,0658.1,34.3
2016-05-28T03:08:00Z,0000380,01000600,0004.54,0002.72,0001.48,-000.05,0000.48,0000.40,0000.12,0000.23,0000.17,25.8,00.0,0658.1,34.3
2016-05-28T03:09:00Z,0000380,01000600,0003.27,0002.47,0001.21,0000.34,0000.30,0000.16,0000.24,0000.15,0000.14,25.8,00.0,0658.1,34.3
2016-05-28T03:10:00Z,0000380,01000600,0004.26,0002.74,0001.89,0000.43,0000.10,0000.30,0000.29,0000.12,0000.17,25.8,00.0,0658.1,34.3
2016-05-28T03:11:00Z,0000380,01000600,0004.12,0002.57,0001.44,0000.05,0000.02,0000.19,0000.19,0000.25,0000.31,25.8,00.0,0658.1,34.3
2016-05-28T03:12:00Z,0000380,01000600,0003.89,0002.83,0001.74,0000.85,0000.02,0000.14,0000.22,0000.14,-000.02,25.8,00.0,0658.1,34.3